Regional Weather Roundup
Issued by NWS

Home | Current Version | Previous Version | Text Only | Print | Product List | Glossary On
Versions: 1 2 3 4 5 6 7 8 9 10 11 12 13 14 15 16 17 18 19 20 21 22 23 24 25 26 27 28 29 30 31 32 33 34 35 36 37 38 39 40 41 42 43 44 45 46 47 48 49 50
000
ASUS43 KFSD 010210
RWRSD

WEATHER ROUNDUP FOR SOUTH DAKOTA
NATIONAL WEATHER SERVICE SIOUX FALLS SD
900 PM CDT WED AUG 31 2016

NOTE: "FAIR" INDICATES FEW OR NO CLOUDS BELOW 12,000 FEET WITH NO
SIGNIFICANT WEATHER AND/OR OBSTRUCTIONS TO VISIBILITY.


SDZ001>005-009-010-012>017-010300-
NORTHWEST AND NORTH CENTRAL SOUTH DAKOTA

CITY           SKY/WX    TMP DP  RH WIND       PRES   REMARKS
BUFFALO          N/A     77  53  43 SE17      30.03S
FAITH            N/A     75  56  51 S12       30.14R
MOBRIDGE       CLEAR     74  59  59 E12       30.12R
$$

SDZ012>016-024>037-041>051-057-063-072>074-010300-
SOUTHWEST AND SOUTH CENTRAL SOUTH DAKOTA

CITY           SKY/WX    TMP DP  RH WIND       PRES   REMARKS
RAPID CTY ARPT CLEAR     69  55  60 SE8       30.15R
PIERRE         CLEAR     75  62  64 SE9       30.13R
CUSTER         CLEAR     66  49  54 E5        30.29R
ELLSWORTH AFB  CLEAR     73  55  53 S14       30.14R
PHILIP         CLEAR     74  58  57 S7        30.13R
PINE RIDGE     CLEAR     72  57  59 SE10      30.18R
WINNER         FAIR      72  62  71 SE7       30.17R
$$

SDZ004>011-016>023-039-040-010300-
NORTHEAST SOUTH DAKOTA

CITY           SKY/WX    TMP DP  RH WIND       PRES   REMARKS
ABERDEEN       CLEAR     69  62  78 NE6       30.17R
WATERTOWN      CLEAR     72  58  61 E6        30.20R
BROOKINGS      CLEAR     71  59  65 E7        30.20R
SISSETON         N/A     67  59  75 E3        30.19R
$$

SDZ017-020-022-023-036>040-048>070-010300-
SOUTHEAST SOUTH DAKOTA

CITY           SKY/WX    TMP DP  RH WIND       PRES   REMARKS
SIOUX FALLS    PTCLDY    70  62  76 CALM      30.19R
HURON          CLEAR     70  60  70 E5        30.16R
CHAMBERLAIN    CLEAR     73  63  70 E6        30.17R
MITCHELL       CLEAR     73  59  61 S8        30.17R
YANKTON        CLEAR     73  59  60 E5        30.16R
$$

ABBREVIATIONS USED IN REMARKS
   TC - TEMPERATURE IN CELSIUS
  WCI - WIND CHILL INDEX
   HX - HEAT INDEX
  VSB - VISIBILITY





USA.gov is the U.S. government's official web portal to all federal, state and local government web resources and services.